This is the latest recevied weather packets stored in our database for station/object DM4XI-13. If no packets are shown the sender has not sent any weather packets the latest 10 day(s).
| Time | Temp. | Humidity | Pressure | Rain* | Wind** | Luminosity | Snow |
|---|---|---|---|---|---|---|---|
| 1778155346 | 13.89° C | 72% | 1011.2 hPa | 0 mm | 0.89 m/s, 197° | 241 W/m² | - |
| 1778155285 | 13.89° C | 71% | 1011.1 hPa | 0 mm | 0.45 m/s, 221° | 276 W/m² | - |
| 1778155224 | 13.33° C | 72% | 1011.2 hPa | 0 mm | 0.89 m/s, 296° | 292 W/m² | - |
| 1778155163 | 12.78° C | 72% | 1011.2 hPa | 0 mm | 1.79 m/s, 276° | 312 W/m² | - |
| 1778155101 | 12.78° C | 75% | 1011.1 hPa | 0 mm | 0.45 m/s, 249° | 385 W/m² | - |
| 1778155041 | 12.78° C | 75% | 1011.2 hPa | 0 mm | 0.45 m/s, 208° | 450 W/m² | - |
| 1778154980 | 12.78° C | 74% | 1011.4 hPa | 0 mm | 0.89 m/s, 314° | 647 W/m² | - |
| 1778154919 | 12.78° C | 74% | 1011.3 hPa | 0 mm | 0.89 m/s, 216° | 571 W/m² | - |
| 1778154857 | 12.78° C | 74% | 1011.3 hPa | 0 mm | 1.79 m/s, 288° | 339 W/m² | - |
| 1778154797 | 12.78° C | 74% | 1011.2 hPa | 0 mm | 0.89 m/s, 303° | 244 W/m² | - |
| 1778154736 | 12.22° C | 74% | 1011.2 hPa | 0 mm | 0.45 m/s, 244° | 194 W/m² | - |
| 1778154675 | 12.22° C | 74% | 1011.5 hPa | 0 mm | 2.24 m/s, 312° | 174 W/m² | - |
| 1778154613 | 12.22° C | 74% | 1011.4 hPa | 0 mm | 0 m/s | 169 W/m² | - |
| 1778154553 | 12.22° C | 73% | 1011.3 hPa | 0 mm | 0.89 m/s, 184° | 178 W/m² | - |
| 1778154491 | 12.22° C | 73% | 1011.5 hPa | 0 mm | 0.89 m/s, 128° | 204 W/m² | - |
| 1778154430 | 12.22° C | 73% | 1011.2 hPa | 0 mm | 0.45 m/s, 243° | 238 W/m² | - |
| 1778154370 | 12.22° C | 73% | 1011.3 hPa | 0 mm | 0.45 m/s, 278° | 243 W/m² | - |
| 1778154309 | 12.22° C | 74% | 1011.3 hPa | 0 mm | 1.79 m/s, 290° | 247 W/m² | - |
| 1778154248 | 12.22° C | 74% | 1011.3 hPa | 0 mm | 0.89 m/s, 238° | 239 W/m² | - |
| 1778154187 | 12.22° C | 75% | 1011.3 hPa | 0 mm | 0.89 m/s, 243° | 229 W/m² | - |
| 1778154126 | 11.67° C | 75% | 1011.3 hPa | 0 mm | 0.45 m/s, 223° | 222 W/m² | - |
| 1778154065 | 11.67° C | 76% | 1011.3 hPa | 0 mm | 0.89 m/s, 244° | 220 W/m² | - |
| 1778154004 | 11.67° C | 76% | 1011.2 hPa | 0 mm | 0.89 m/s, 255° | 215 W/m² | - |
| 1778153943 | 11.67° C | 75% | 1011.3 hPa | 0 mm | 1.79 m/s, 294° | 202 W/m² | - |
| 1778153882 | 11.67° C | 75% | 1011.2 hPa | 0 mm | 1.79 m/s, 288° | 190 W/m² | - |
* Rain latest hour (hover to see other rain measurements)
** Current wind speed in m/s (hover to see current wind gust speed)